| time (UTC) | temp C | wind direction | speed KPH | gust KPH | rain 1hr cm | rain 24hr cm | rain mn cm | humidity % | barometer mb |
| 20260510224735 | 7 | 241 | 1.6 | 3.2 | 0.00 | 0.00 | 0.00 | 84 | 1005.7 |
| 20260510224458 | 7 | 241 | 1.6 | 3.2 | 0.00 | 0.00 | 0.00 | 84 | 1005.7 |
| 20260510223736 | 7 | 241 | 0.0 | 3.2 | 0.00 | 0.00 | 0.00 | 84 | 1005.7 |
| 20260510223235 | 7 | 241 | 0.0 | 3.2 | 0.00 | 0.00 | 0.00 | 84 | 1005.7 |
| 20260510222735 | 7 | 241 | 1.6 | 3.2 | 0.00 | 0.00 | 0.00 | 84 | 1005.8 |
| 20260510222235 | 7 | 240 | 1.6 | 3.2 | 0.00 | 0.00 | 0.00 | 84 | 1005.7 |
| 20260510221735 | 7 | 240 | 0.0 | 3.2 | 0.00 | 0.00 | 0.00 | 84 | 1005.7 |
| 20260510221235 | 7 | 240 | 0.0 | 0.0 | 0.00 | 0.00 | 0.00 | 84 | 1005.8 |
| 20260510220735 | 7 | 240 | 0.0 | 0.0 | 0.00 | 0.00 | 0.00 | 84 | 1005.7 |
| 20260510220235 | 7 | 240 | 0.0 | 0.0 | 0.00 | 0.00 | 0.00 | 83 | 1005.7 |
| 20260510215736 | 7 | 240 | 0.0 | 0.0 | 0.00 | 0.00 | 0.00 | 83 | 1005.7 |
| 20260510215236 | 7 | 240 | 0.0 | 0.0 | 0.00 | 0.00 | 0.00 | 82 | 1005.7 |
| 20260510214737 | 7 | 240 | 0.0 | 0.0 | 0.00 | 0.00 | 0.00 | 82 | 1005.7 |
| 20260510214235 | 7 | 240 | 0.0 | 0.0 | 0.00 | 0.00 | 0.00 | 82 | 1005.8 |
| 20260510213736 | 7 | 240 | 0.0 | 0.0 | 0.00 | 0.00 | 0.00 | 82 | 1005.8 |
| 20260510213236 | 7 | 240 | 0.0 | 0.0 | 0.00 | 0.00 | 0.00 | 83 | 1005.8 |
| 20260510212734 | 7 | 240 | 0.0 | 0.0 | 0.00 | 0.00 | 0.00 | 82 | 1005.8 |
| 20260510212235 | 7 | 240 | 0.0 | 0.0 | 0.00 | 0.00 | 0.00 | 82 | 1006.0 |
| 20260510211735 | 7 | 240 | 0.0 | 0.0 | 0.00 | 0.00 | 0.00 | 81 | 1006.0 |
| 20260510211235 | 7 | 240 | 0.0 | 0.0 | 0.00 | 0.00 | 0.00 | 82 | 1005.9 |
| 20260510210735 | 7 | 240 | 0.0 | 0.0 | 0.00 | 0.00 | 0.00 | 81 | 1006.1 |
| 20260510210235 | 7 | 240 | 0.0 | 0.0 | 0.00 | 0.00 | 0.00 | 81 | 1006.1 |
| 20260510205734 | 7 | 240 | 0.0 | 1.6 | 0.00 | 0.00 | 0.00 | 81 | 1006.1 |
| 20260510205453 | 8 | 240 | 0.0 | 1.6 | 0.00 | 0.00 | 0.00 | 81 | 1006.2 |
| 20260510204734 | 8 | 240 | 0.0 | 1.6 | 0.00 | 0.00 | 0.00 | 80 | 1006.2 |
| 20260510204231 | 8 | 240 | 0.0 | 1.6 | 0.00 | 0.00 | 0.00 | 80 | 1006.2 |
| 20260510203952 | 8 | 240 | 0.0 | 1.6 | 0.00 | 0.00 | 0.00 | 80 | 1006.2 |
| 20260510203232 | 8 | 240 | 0.0 | 0.0 | 0.00 | 0.00 | 0.00 | 80 | 1006.3 |
| 20260510202952 | 8 | 240 | 0.0 | 0.0 | 0.00 | 0.00 | 0.00 | 79 | 1006.3 |
| 20260510202231 | 8 | 240 | 0.0 | 3.2 | 0.00 | 0.00 | 0.00 | 79 | 1006.4 |
| 20260510201730 | 8 | 240 | 0.0 | 3.2 | 0.00 | 0.00 | 0.00 | 79 | 1006.4 |
| 20260510201231 | 8 | 240 | 0.0 | 1.6 | 0.00 | 0.00 | 0.00 | 79 | 1006.4 |
| 20260510200952 | 8 | 240 | 0.0 | 1.6 | 0.00 | 0.00 | 0.00 | 79 | 1006.5 |
| 20260510200230 | 8 | 241 | 0.0 | 3.2 | 0.00 | 0.00 | 0.00 | 78 | 1006.4 |
| 20260510195730 | 8 | 241 | 0.0 | 3.2 | 0.00 | 0.00 | 0.00 | 78 | 1006.3 |
| 20260510195234 | 8 | 241 | 1.6 | 4.8 | 0.00 | 0.00 | 0.00 | 78 | 1006.4 |
| 20260510194732 | 8 | 240 | 0.0 | 4.8 | 0.00 | 0.00 | 0.00 | 78 | 1006.5 |
| 20260510194232 | 8 | 251 | 1.6 | 3.2 | 0.00 | 0.00 | 0.00 | 77 | 1006.4 |
| 20260510193731 | 8 | 254 | 1.6 | 6.4 | 0.00 | 0.00 | 0.00 | 77 | 1006.5 |
| 20260510193232 | 8 | 275 | 1.6 | 6.4 | 0.00 | 0.00 | 0.00 | 77 | 1006.5 |
| 20260510192955 | 8 | 221 | 1.6 | 4.8 | 0.00 | 0.00 | 0.00 | 76 | 1006.6 |
| 20260510192717 | 8 | 221 | 3.2 | 4.8 | 0.00 | 0.00 | 0.00 | 76 | 1006.4 |
| 20260510191732 | 8 | 221 | 1.6 | 6.4 | 0.00 | 0.00 | 0.00 | 76 | 1006.4 |
| 20260510191233 | 8 | 197 | 3.2 | 8.0 | 0.00 | 0.00 | 0.00 | 75 | 1006.4 |
| 20260510190733 | 8 | 199 | 3.2 | 8.0 | 0.00 | 0.00 | 0.00 | 75 | 1006.4 |
| 20260510190232 | 8 | 161 | 3.2 | 8.0 | 0.00 | 0.00 | 0.00 | 75 | 1006.4 |
| 20260510185732 | 8 | 250 | 6.4 | 8.0 | 0.00 | 0.00 | 0.00 | 74 | 1006.5 |
| 20260510185231 | 8 | 197 | 3.2 | 9.7 | 0.00 | 0.00 | 0.00 | 74 | 1006.5 |
| 20260510185005 | 8 | 206 | 6.4 | 9.7 | 0.00 | 0.00 | 0.00 | 74 | 1006.4 |
| 20260510184232 | 8 | 183 | 4.8 | 6.4 | 0.00 | 0.00 | 0.00 | 73 | 1006.4 |
| 20260510183732 | 8 | 186 | 4.8 | 6.4 | 0.00 | 0.00 | 0.00 | 73 | 1006.6 |
| 20260510183231 | 8 | 224 | 4.8 | 11.3 | 0.00 | 0.00 | 0.00 | 72 | 1006.7 |
| 20260510182732 | 8 | 245 | 1.6 | 11.3 | 0.00 | 0.00 | 0.00 | 72 | 1006.6 |
| 20260510182231 | 8 | 173 | 1.6 | 9.7 | 0.00 | 0.00 | 0.00 | 71 | 1006.7 |
| 20260510181732 | 9 | 219 | 4.8 | 9.7 | 0.00 | 0.00 | 0.00 | 71 | 1006.8 |
| 20260510181232 | 9 | 209 | 4.8 | 9.7 | 0.00 | 0.00 | 0.00 | 70 | 1006.8 |
| 20260510180731 | 9 | 197 | 4.8 | 16.1 | 0.00 | 0.00 | 0.00 | 70 | 1006.9 |
| 20260510180231 | 9 | 180 | 6.4 | 16.1 | 0.00 | 0.00 | 0.00 | 70 | 1006.9 |
| 20260510175731 | 9 | 268 | 4.8 | 14.5 | 0.00 | 0.00 | 0.00 | 69 | 1007.0 |
| 20260510175230 | 9 | 176 | 9.7 | 16.1 | 0.00 | 0.00 | 0.00 | 68 | 1007.0 |
| 20260510174731 | 9 | 238 | 6.4 | 17.7 | 0.00 | 0.00 | 0.00 | 68 | 1007.0 |
| 20260510174231 | 9 | 158 | 9.7 | 17.7 | 0.00 | 0.00 | 0.00 | 67 | 1007.0 |
| 20260510173731 | 9 | 231 | 8.0 | 14.5 | 0.00 | 0.00 | 0.00 | 67 | 1007.1 |
| 20260510173230 | 9 | 180 | 4.8 | 11.3 | 0.00 | 0.00 | 0.00 | 66 | 1007.2 |
| 20260510172731 | 9 | 220 | 4.8 | 16.1 | 0.00 | 0.00 | 0.00 | 65 | 1007.3 |
| 20260510172231 | 10 | 180 | 9.7 | 19.3 | 0.00 | 0.00 | 0.00 | 64 | 1007.2 |
| 20260510171731 | 10 | 196 | 9.7 | 19.3 | 0.00 | 0.00 | 0.00 | 63 | 1007.2 |
| 20260510171230 | 10 | 188 | 4.8 | 16.1 | 0.00 | 0.00 | 0.00 | 63 | 1007.4 |
| 20260510170730 | 10 | 197 | 8.0 | 16.1 | 0.00 | 0.00 | 0.00 | 62 | 1007.4 |
| 20260510170456 | 10 | 200 | 6.4 | 14.5 | 0.00 | 0.00 | 0.00 | 61 | 1007.6 |
| 20260510165949 | 10 | 206 | 8.0 | 20.9 | 0.00 | 0.00 | 0.00 | 60 | 1007.6 |
| 20260510165230 | 10 | 228 | 9.7 | 20.9 | 0.00 | 0.00 | 0.00 | 59 | 1007.7 |
| 20260510164729 | 10 | 257 | 8.0 | 17.7 | 0.00 | 0.00 | 0.00 | 58 | 1007.7 |
| 20260510164715 | 10 | 178 | 6.4 | 17.7 | 0.00 | 0.00 | 0.00 | 57 | 1007.8 |
| 20260510163728 | 11 | 203 | 4.8 | 22.5 | 0.00 | 0.00 | 0.00 | 56 | 1007.8 |
| 20260510163449 | 11 | 237 | 8.0 | 22.5 | 0.00 | 0.00 | 0.00 | 55 | 1007.8 |
| 20260510162729 | 11 | 161 | 4.8 | 17.7 | 0.00 | 0.00 | 0.00 | 55 | 1007.9 |
| 20260510162229 | 11 | 178 | 8.0 | 17.7 | 0.00 | 0.00 | 0.00 | 54 | 1008.0 |
| 20260510161948 | 11 | 234 | 9.7 | 17.7 | 0.00 | 0.00 | 0.00 | 53 | 1008.0 |
| 20260510161229 | 11 | 180 | 6.4 | 19.3 | 0.00 | 0.00 | 0.00 | 51 | 1008.0 |
| 20260510160728 | 11 | 186 | 6.4 | 19.3 | 0.00 | 0.00 | 0.00 | 49 | 1008.2 |
| 20260510160449 | 12 | 189 | 8.0 | 14.5 | 0.00 | 0.00 | 0.00 | 49 | 1008.3 |
| 20260510155728 | 12 | 245 | 3.2 | 17.7 | 0.00 | 0.00 | 0.00 | 46 | 1008.3 |
| 20260510155227 | 12 | 261 | 6.4 | 17.7 | 0.00 | 0.00 | 0.00 | 45 | 1008.4 |
| 20260510154727 | 12 | 235 | 6.4 | 14.5 | 0.00 | 0.00 | 0.00 | 46 | 1008.5 |
| 20260510154226 | 13 | 228 | 4.8 | 19.3 | 0.00 | 0.00 | 0.00 | 43 | 1008.5 |
| 20260510153726 | 12 | 169 | 9.7 | 22.5 | 0.00 | 0.00 | 0.00 | 44 | 1008.5 |
| 20260510153227 | 13 | 196 | 14.5 | 22.5 | 0.00 | 0.00 | 0.00 | 43 | 1008.5 |
| 20260510152726 | 13 | 226 | 8.0 | 19.3 | 0.00 | 0.00 | 0.00 | 40 | 1008.5 |
| 20260510152451 | 13 | 176 | 6.4 | 25.7 | 0.00 | 0.00 | 0.00 | 40 | 1008.6 |
| 20260510151725 | 13 | 220 | 8.0 | 25.7 | 0.00 | 0.00 | 0.00 | 38 | 1008.7 |
| 20260510151226 | 13 | 251 | 8.0 | 14.5 | 0.00 | 0.00 | 0.00 | 39 | 1008.7 |
| 20260510150726 | 13 | 212 | 6.4 | 19.3 | 0.00 | 0.00 | 0.00 | 39 | 1008.7 |
| 20260510150712 | 13 | 204 | 6.4 | 20.9 | 0.00 | 0.00 | 0.00 | 40 | 1008.9 |
| 20260510145947 | 12 | 275 | 9.7 | 20.9 | 0.00 | 0.00 | 0.00 | 41 | 1009.1 |
| 20260510145227 | 13 | 189 | 9.7 | 20.9 | 0.00 | 0.00 | 0.00 | 41 | 1009.1 |
| 20260510144726 | 13 | 171 | 6.4 | 20.9 | 0.00 | 0.00 | 0.00 | 42 | 1009.1 |
| 20260510144227 | 13 | 271 | 8.0 | 20.9 | 0.00 | 0.00 | 0.00 | 41 | 1009.2 |
| 20260510143727 | 13 | 276 | 8.0 | 22.5 | 0.00 | 0.00 | 0.00 | 41 | 1009.3 |
| 20260510143227 | 13 | 227 | 9.7 | 22.5 | 0.00 | 0.00 | 0.00 | 41 | 1009.3 |
| 20260510142726 | 13 | 158 | 11.3 | 22.5 | 0.00 | 0.00 | 0.00 | 41 | 1009.3 |
| 20260510142226 | 13 | 173 | 8.0 | 20.9 | 0.00 | 0.00 | 0.00 | 42 | 1009.4 |
| 20260510141727 | 13 | 197 | 12.9 | 20.9 | 0.00 | 0.00 | 0.00 | 42 | 1009.5 |
| 20260510141224 | 13 | 262 | 6.4 | 22.5 | 0.00 | 0.00 | 0.00 | 42 | 1009.6 |
| 20260510140724 | 13 | 162 | 14.5 | 22.5 | 0.00 | 0.00 | 0.00 | 41 | 1009.6 |
| 20260510140227 | 13 | 221 | 8.0 | 16.1 | 0.00 | 0.00 | 0.00 | 40 | 1009.6 |
| 20260510135726 | 13 | 234 | 6.4 | 19.3 | 0.00 | 0.00 | 0.00 | 40 | 1009.8 |
| 20260510135226 | 13 | 212 | 9.7 | 19.3 | 0.00 | 0.00 | 0.00 | 40 | 1009.8 |
| 20260510134725 | 13 | 173 | 8.0 | 20.9 | 0.00 | 0.00 | 0.00 | 42 | 1009.9 |
| 20260510134226 | 13 | 224 | 9.7 | 20.9 | 0.00 | 0.00 | 0.00 | 40 | 1010.0 |
| 20260510133726 | 13 | 176 | 11.3 | 19.3 | 0.00 | 0.00 | 0.00 | 40 | 1010.0 |
| 20260510133226 | 13 | 245 | 9.7 | 20.9 | 0.00 | 0.00 | 0.00 | 41 | 1010.2 |
| 20260510132724 | 13 | 188 | 9.7 | 20.9 | 0.00 | 0.00 | 0.00 | 40 | 1010.2 |
| 20260510132225 | 13 | 289 | 4.8 | 19.3 | 0.00 | 0.00 | 0.00 | 41 | 1010.3 |
| 20260510131725 | 14 | 185 | 6.4 | 32.2 | 0.00 | 0.00 | 0.00 | 41 | 1010.4 |
| 20260510131225 | 13 | 219 | 12.9 | 32.2 | 0.00 | 0.00 | 0.00 | 40 | 1010.4 |
| 20260510130725 | 14 | 195 | 11.3 | 25.7 | 0.00 | 0.00 | 0.00 | 41 | 1010.5 |
| 20260510130225 | 13 | 235 | 6.4 | 19.3 | 0.00 | 0.00 | 0.00 | 41 | 1010.6 |
| 20260510125950 | 13 | 262 | 12.9 | 19.3 | 0.00 | 0.00 | 0.00 | 40 | 1010.7 |
| 20260510125224 | 13 | 180 | 8.0 | 20.9 | 0.00 | 0.00 | 0.00 | 42 | 1010.7 |
| 20260510124724 | 13 | 268 | 9.7 | 20.9 | 0.00 | 0.00 | 0.00 | 42 | 1010.9 |
| 20260510124224 | 13 | 171 | 9.7 | 19.3 | 0.00 | 0.00 | 0.00 | 41 | 1011.0 |
| 20260510123726 | 13 | 200 | 11.3 | 19.3 | 0.00 | 0.00 | 0.00 | 40 | 1011.1 |
| 20260510123445 | 13 | 196 | 8.0 | 19.3 | 0.00 | 0.00 | 0.00 | 40 | 1011.1 |
| 20260510123211 | 13 | 243 | 6.4 | 24.1 | 0.00 | 0.00 | 0.00 | 40 | 1011.1 |
| 20260510122443 | 13 | 179 | 11.3 | 24.1 | 0.00 | 0.00 | 0.00 | 41 | 1011.2 |
| 20260510121724 | 13 | 193 | 6.4 | 22.5 | 0.00 | 0.00 | 0.00 | 41 | 1011.2 |
| 20260510121443 | 13 | 221 | 9.7 | 19.3 | 0.00 | 0.00 | 0.00 | 39 | 1011.3 |
| 20260510120723 | 14 | 193 | 8.0 | 16.1 | 0.00 | 0.00 | 0.00 | 39 | 1011.4 |
| 20260510120224 | 13 | 241 | 6.4 | 24.1 | 0.00 | 0.00 | 0.00 | 40 | 1011.4 |
| 20260510115723 | 13 | 220 | 9.7 | 24.1 | 0.00 | 0.00 | 0.00 | 39 | 1011.4 |
| 20260510115223 | 13 | 251 | 11.3 | 24.1 | 0.00 | 0.00 | 0.00 | 39 | 1011.5 |
| 20260510114722 | 13 | 188 | 11.3 | 22.5 | 0.00 | 0.00 | 0.00 | 40 | 1011.4 |
| 20260510114221 | 13 | 190 | 9.7 | 22.5 | 0.00 | 0.00 | 0.00 | 40 | 1011.6 |
| 20260510113722 | 14 | 171 | 11.3 | 20.9 | 0.00 | 0.00 | 0.00 | 39 | 1011.6 |
| 20260510113221 | 14 | 240 | 8.0 | 24.1 | 0.00 | 0.00 | 0.00 | 41 | 1011.7 |
| 20260510112721 | 14 | 279 | 9.7 | 24.1 | 0.00 | 0.00 | 0.00 | 41 | 1011.7 |
| 20260510112221 | 14 | 149 | 8.0 | 20.9 | 0.00 | 0.00 | 0.00 | 41 | 1011.8 |
| 20260510111722 | 13 | 240 | 8.0 | 20.9 | 0.00 | 0.00 | 0.00 | 41 | 1011.9 |
| 20260510111221 | 13 | 207 | 11.3 | 20.9 | 0.00 | 0.00 | 0.00 | 40 | 1011.9 |
| 20260510110722 | 13 | 245 | 11.3 | 20.9 | 0.00 | 0.00 | 0.00 | 40 | 1012.0 |
| 20260510110221 | 13 | 281 | 9.7 | 17.7 | 0.00 | 0.00 | 0.00 | 39 | 1012.1 |
| 20260510105721 | 13 | 235 | 9.7 | 22.5 | 0.00 | 0.00 | 0.00 | 39 | 1012.4 |
| 20260510105220 | 13 | 223 | 9.7 | 30.6 | 0.00 | 0.00 | 0.00 | 39 | 1012.5 |
| 20260510104944 | 13 | 220 | 16.1 | 30.6 | 0.00 | 0.00 | 0.00 | 39 | 1012.6 |
| 20260510104439 | 13 | 219 | 8.0 | 24.1 | 0.00 | 0.00 | 0.00 | 40 | 1012.6 |
| 20260510103945 | 13 | 176 | 16.1 | 24.1 | 0.00 | 0.00 | 0.00 | 41 | 1012.6 |
| 20260510103220 | 13 | 193 | 11.3 | 24.1 | 0.00 | 0.00 | 0.00 | 40 | 1012.7 |
| 20260510102942 | 13 | 190 | 9.7 | 20.9 | 0.00 | 0.00 | 0.00 | 40 | 1012.7 |
| 20260510102220 | 13 | 258 | 9.7 | 24.1 | 0.00 | 0.00 | 0.00 | 40 | 1012.8 |
| 20260510101938 | 13 | 244 | 4.8 | 24.1 | 0.00 | 0.00 | 0.00 | 40 | 1012.8 |
| 20260510101219 | 13 | 168 | 6.4 | 20.9 | 0.00 | 0.00 | 0.00 | 41 | 1012.9 |
| 20260510100720 | 12 | 245 | 6.4 | 22.5 | 0.00 | 0.00 | 0.00 | 40 | 1013.0 |
| 20260510100220 | 13 | 212 | 12.9 | 22.5 | 0.00 | 0.00 | 0.00 | 39 | 1013.1 |
| 20260510095721 | 13 | 206 | 6.4 | 19.3 | 0.00 | 0.00 | 0.00 | 40 | 1013.1 |
| 20260510095221 | 13 | 255 | 8.0 | 19.3 | 0.00 | 0.00 | 0.00 | 39 | 1013.2 |
| 20260510094721 | 13 | 268 | 8.0 | 17.7 | 0.00 | 0.00 | 0.00 | 39 | 1013.2 |
| 20260510094221 | 13 | 210 | 9.7 | 22.5 | 0.00 | 0.00 | 0.00 | 39 | 1013.3 |
| 20260510093720 | 13 | 258 | 8.0 | 22.5 | 0.00 | 0.00 | 0.00 | 42 | 1013.2 |
| 20260510093218 | 13 | 276 | 8.0 | 17.7 | 0.00 | 0.00 | 0.00 | 41 | 1013.3 |
| 20260510092719 | 13 | 219 | 6.4 | 16.1 | 0.00 | 0.00 | 0.00 | 40 | 1013.2 |
| 20260510092220 | 13 | 176 | 8.0 | 16.1 | 0.00 | 0.00 | 0.00 | 39 | 1013.4 |
| 20260510091720 | 13 | 252 | 3.2 | 16.1 | 0.00 | 0.00 | 0.00 | 42 | 1013.4 |
| 20260510091219 | 13 | 261 | 8.0 | 16.1 | 0.00 | 0.00 | 0.00 | 42 | 1013.5 |
| 20260510090720 | 13 | 251 | 11.3 | 17.7 | 0.00 | 0.00 | 0.00 | 40 | 1013.5 |
| 20260510090219 | 13 | 234 | 8.0 | 17.7 | 0.00 | 0.00 | 0.00 | 39 | 1013.6 |
| 20260510085720 | 13 | 255 | 9.7 | 19.3 | 0.00 | 0.00 | 0.00 | 39 | 1013.5 |
| 20260510085442 | 13 | 204 | 8.0 | 19.3 | 0.00 | 0.00 | 0.00 | 38 | 1013.7 |
| 20260510084716 | 13 | 188 | 3.2 | 17.7 | 0.00 | 0.00 | 0.00 | 38 | 1013.7 |
| 20260510084219 | 13 | 248 | 6.4 | 17.7 | 0.00 | 0.00 | 0.00 | 39 | 1013.8 |
| 20260510083719 | 13 | 192 | 8.0 | 20.9 | 0.00 | 0.00 | 0.00 | 38 | 1013.8 |
| 20260510083217 | 13 | 186 | 6.4 | 20.9 | 0.00 | 0.00 | 0.00 | 37 | 1013.9 |
| 20260510082943 | 13 | 196 | 9.7 | 16.1 | 0.00 | 0.00 | 0.00 | 36 | 1014.0 |
| 20260510082437 | 13 | 178 | 9.7 | 16.1 | 0.00 | 0.00 | 0.00 | 35 | 1014.0 |
| 20260510081719 | 13 | 221 | 8.0 | 16.1 | 0.00 | 0.00 | 0.00 | 35 | 1014.0 |
| 20260510081218 | 13 | 243 | 3.2 | 16.1 | 0.00 | 0.00 | 0.00 | 35 | 1014.1 |
| 20260510080717 | 13 | 227 | 6.4 | 9.7 | 0.00 | 0.00 | 0.00 | 39 | 1014.2 |
| 20260510080217 | 13 | 173 | 6.4 | 11.3 | 0.00 | 0.00 | 0.00 | 39 | 1014.2 |
| 20260510075717 | 13 | 220 | 4.8 | 14.5 | 0.00 | 0.00 | 0.00 | 37 | 1014.2 |
| 20260510075218 | 13 | 243 | 9.7 | 14.5 | 0.00 | 0.00 | 0.00 | 41 | 1014.4 |
| 20260510074717 | 13 | 193 | 4.8 | 14.5 | 0.00 | 0.00 | 0.00 | 43 | 1014.3 |
| 20260510074217 | 12 | 192 | 4.8 | 17.7 | 0.00 | 0.00 | 0.00 | 44 | 1014.4 |
| 20260510073716 | 12 | 155 | 9.7 | 22.5 | 0.00 | 0.00 | 0.00 | 44 | 1014.4 |
| 20260510073217 | 12 | 189 | 11.3 | 22.5 | 0.00 | 0.00 | 0.00 | 42 | 1014.5 |
| 20260510072940 | 12 | 193 | 6.4 | 16.1 | 0.00 | 0.00 | 0.00 | 42 | 1014.6 |
| 20260510072439 | 12 | 169 | 9.7 | 14.5 | 0.00 | 0.00 | 0.00 | 41 | 1014.6 |
| 20260510071719 | 12 | 192 | 6.4 | 17.7 | 0.00 | 0.00 | 0.00 | 40 | 1014.7 |
| 20260510071216 | 12 | 212 | 4.8 | 17.7 | 0.00 | 0.00 | 0.00 | 37 | 1014.7 |
| 20260510070716 | 12 | 235 | 9.7 | 17.7 | 0.00 | 0.00 | 0.00 | 40 | 1014.8 |
| 20260510070216 | 12 | 233 | 6.4 | 17.7 | 0.00 | 0.00 | 0.00 | 44 | 1014.8 |
| 20260510065716 | 12 | 175 | 4.8 | 17.7 | 0.00 | 0.00 | 0.00 | 43 | 1014.9 |
| 20260510065215 | 11 | 212 | 9.7 | 17.7 | 0.00 | 0.00 | 0.00 | 44 | 1014.9 |
| 20260510064715 | 11 | 188 | 9.7 | 17.7 | 0.00 | 0.00 | 0.00 | 42 | 1015.0 |
| 20260510064215 | 11 | 168 | 6.4 | 16.1 | 0.00 | 0.00 | 0.00 | 45 | 1015.1 |
| 20260510063716 | 11 | 164 | 9.7 | 16.1 | 0.00 | 0.00 | 0.00 | 48 | 1015.2 |
| 20260510063214 | 11 | 169 | 8.0 | 14.5 | 0.00 | 0.00 | 0.00 | 49 | 1015.1 |
| 20260510062715 | 11 | 137 | 8.0 | 14.5 | 0.00 | 0.00 | 0.00 | 49 | 1015.3 |
| 20260510062220 | 11 | 94 | 6.4 | 11.3 | 0.00 | 0.00 | 0.00 | 52 | 1015.4 |
| 20260510061719 | 11 | 154 | 8.0 | 11.3 | 0.00 | 0.00 | 0.00 | 53 | 1015.5 |
| 20260510061216 | 11 | 145 | 8.0 | 14.5 | 0.00 | 0.00 | 0.00 | 52 | 1015.5 |
| 20260510060715 | 11 | 130 | 6.4 | 14.5 | 0.00 | 0.00 | 0.00 | 53 | 1015.6 |
| 20260510060651 | 11 | 157 | 6.4 | 9.7 | 0.00 | 0.00 | 0.00 | 54 | 1015.7 |
| 20260510055714 | 11 | 250 | 4.8 | 8.0 | 0.00 | 0.00 | 0.00 | 54 | 1015.6 |
| 20260510055215 | 10 | 238 | 4.8 | 8.0 | 0.00 | 0.00 | 0.00 | 58 | 1015.7 |
| 20260510054713 | 10 | 237 | 3.2 | 9.7 | 0.00 | 0.00 | 0.00 | 59 | 1015.7 |
| 20260510054438 | 10 | 179 | 4.8 | 9.7 | 0.00 | 0.00 | 0.00 | 62 | 1015.7 |
| 20260510053714 | 10 | 166 | 4.8 | 9.7 | 0.00 | 0.00 | 0.00 | 63 | 1015.6 |
| 20260510053214 | 10 | 204 | 6.4 | 9.7 | 0.00 | 0.00 | 0.00 | 65 | 1015.8 |
| 20260510052937 | 9 | 140 | 3.2 | 6.4 | 0.00 | 0.00 | 0.00 | 69 | 1015.7 |
| 20260510052439 | 8 | 172 | 3.2 | 6.4 | 0.00 | 0.00 | 0.00 | 71 | 1015.9 |
| 20260510051720 | 8 | 183 | 4.8 | 6.4 | 0.00 | 0.00 | 0.00 | 71 | 1015.9 |
| 20260510051214 | 8 | 176 | 4.8 | 6.4 | 0.00 | 0.00 | 0.00 | 72 | 1016.0 |
| 20260510050936 | 8 | 180 | 3.2 | 6.4 | 0.00 | 0.00 | 0.00 | 74 | 1016.0 |
| 20260510050213 | 8 | 138 | 4.8 | 6.4 | 0.00 | 0.00 | 0.00 | 75 | 1016.0 |
| 20260510045713 | 7 | 185 | 3.2 | 6.4 | 0.00 | 0.00 | 0.00 | 75 | 1016.1 |
| 20260510045214 | 7 | 155 | 4.8 | 6.4 | 0.00 | 0.00 | 0.00 | 76 | 1016.2 |
| 20260510044712 | 7 | 171 | 1.6 | 6.4 | 0.00 | 0.00 | 0.00 | 77 | 1016.2 |
| 20260510044656 | 6 | 162 | 3.2 | 6.4 | 0.00 | 0.00 | 0.00 | 77 | 1016.2 |
| 20260510043713 | 6 | 148 | 3.2 | 6.4 | 0.00 | 0.00 | 0.00 | 77 | 1016.3 |
| 20260510043212 | 6 | 151 | 3.2 | 6.4 | 0.00 | 0.00 | 0.00 | 78 | 1016.3 |
| 20260510042712 | 6 | 154 | 1.6 | 6.4 | 0.00 | 0.00 | 0.00 | 79 | 1016.4 |
| 20260510042213 | 6 | 142 | 6.4 | 6.4 | 0.00 | 0.00 | 0.00 | 81 | 1016.4 |
| 20260510041712 | 6 | 161 | 4.8 | 6.4 | 0.00 | 0.00 | 0.00 | 81 | 1016.5 |
| 20260510041219 | 6 | 169 | 3.2 | 4.8 | 0.00 | 0.00 | 0.00 | 82 | 1016.6 |
| 20260510040712 | 5 | 162 | 3.2 | 4.8 | 0.00 | 0.00 | 0.00 | 84 | 1016.7 |
| 20260510040212 | 5 | 161 | 3.2 | 4.8 | 0.00 | 0.00 | 0.00 | 85 | 1016.9 |
| 20260510035939 | 5 | 154 | 1.6 | 3.2 | 0.00 | 0.00 | 0.00 | 87 | 1016.9 |
| 20260510035211 | 5 | 152 | 3.2 | 3.2 | 0.00 | 0.00 | 0.00 | 89 | 1017.0 |
| 20260510034710 | 4 | 152 | 0.0 | 3.2 | 0.00 | 0.00 | 0.00 | 89 | 1017.1 |
| 20260510034211 | 3 | 152 | 1.6 | 3.2 | 0.00 | 0.00 | 0.00 | 89 | 1017.1 |
| 20260510033711 | 3 | 152 | 1.6 | 1.6 | 0.00 | 0.00 | 0.00 | 90 | 1017.1 |
| 20260510033218 | 3 | 152 | 0.0 | 1.6 | 0.00 | 0.00 | 0.00 | 92 | 1017.2 |
| 20260510032710 | 3 | 152 | 0.0 | 0.0 | 0.00 | 0.00 | 0.00 | 92 | 1017.4 |
| 20260510032210 | 3 | 152 | 0.0 | 0.0 | 0.00 | 0.00 | 0.00 | 92 | 1017.4 |
| 20260510031710 | 3 | 152 | 0.0 | 0.0 | 0.00 | 0.00 | 0.00 | 93 | 1017.4 |
| 20260510031210 | 2 | 152 | 0.0 | 0.0 | 0.00 | 0.00 | 0.00 | 92 | 1017.5 |
| 20260510030710 | 2 | 152 | 0.0 | 0.0 | 0.00 | 0.00 | 0.00 | 93 | 1017.6 |
| 20260510030209 | 2 | 152 | 0.0 | 0.0 | 0.00 | 0.00 | 0.00 | 91 | 1017.6 |
| 20260510025710 | 1 | 152 | 0.0 | 0.0 | 0.00 | 0.00 | 0.00 | 91 | 1017.6 |
| 20260510025436 | 1 | 152 | 0.0 | 0.0 | 0.00 | 0.00 | 0.00 | 91 | 1017.6 |
| 20260510024710 | 2 | 152 | 0.0 | 1.6 | 0.00 | 0.00 | 0.00 | 91 | 1017.6 |
| 20260510024210 | 1 | 152 | 0.0 | 3.2 | 0.00 | 0.00 | 0.00 | 91 | 1017.6 |
| 20260510023710 | 1 | 152 | 0.0 | 3.2 | 0.00 | 0.00 | 0.00 | 90 | 1017.7 |
| 20260510023210 | 1 | 152 | 1.6 | 3.2 | 0.00 | 0.00 | 0.00 | 90 | 1017.8 |
| 20260510022936 | 1 | 152 | 0.0 | 3.2 | 0.00 | 0.00 | 0.00 | 90 | 1017.9 |
| 20260510022211 | 1 | 152 | 1.6 | 3.2 | 0.00 | 0.00 | 0.00 | 90 | 1017.9 |
| 20260510021710 | 1 | 152 | 0.0 | 0.0 | 0.00 | 0.00 | 0.00 | 89 | 1018.0 |
| 20260510021210 | 1 | 152 | 0.0 | 0.0 | 0.00 | 0.00 | 0.00 | 89 | 1018.1 |
| 20260510020709 | 2 | 152 | 0.0 | 0.0 | 0.00 | 0.00 | 0.00 | 89 | 1018.1 |
| 20260510020210 | 2 | 152 | 0.0 | 0.0 | 0.00 | 0.00 | 0.00 | 89 | 1018.2 |
| 20260510015710 | 2 | 152 | 0.0 | 0.0 | 0.00 | 0.00 | 0.00 | 89 | 1018.3 |
| 20260510015211 | 2 | 152 | 0.0 | 0.0 | 0.00 | 0.00 | 0.00 | 88 | 1018.4 |
| 20260510014710 | 2 | 152 | 0.0 | 0.0 | 0.00 | 0.00 | 0.00 | 88 | 1018.4 |
| 20260510014432 | 2 | 152 | 0.0 | 0.0 | 0.00 | 0.00 | 0.00 | 88 | 1018.5 |
| 20260510013710 | 2 | 152 | 0.0 | 0.0 | 0.00 | 0.00 | 0.00 | 87 | 1018.5 |
| 20260510013211 | 2 | 152 | 0.0 | 0.0 | 0.00 | 0.00 | 0.00 | 87 | 1018.6 |
| 20260510012711 | 2 | 152 | 0.0 | 0.0 | 0.00 | 0.00 | 0.00 | 86 | 1018.6 |
| 20260510012210 | 2 | 152 | 0.0 | 0.0 | 0.00 | 0.00 | 0.00 | 86 | 1018.7 |
| 20260510011710 | 2 | 152 | 0.0 | 0.0 | 0.00 | 0.00 | 0.00 | 86 | 1018.7 |
| 20260510011655 | 2 | 152 | 0.0 | 0.0 | 0.00 | 0.00 | 0.00 | 85 | 1018.8 |
| 20260510010930 | 2 | 152 | 0.0 | 0.0 | 0.00 | 0.00 | 0.00 | 85 | 1018.8 |
| 20260510010209 | 3 | 152 | 0.0 | 0.0 | 0.00 | 0.00 | 0.00 | 84 | 1018.9 |
| 20260510005709 | 3 | 152 | 0.0 | 0.0 | 0.00 | 0.00 | 0.00 | 84 | 1018.8 |
| 20260510005208 | 3 | 152 | 0.0 | 0.0 | 0.00 | 0.00 | 0.00 | 84 | 1018.8 |
| 20260510004708 | 3 | 152 | 0.0 | 0.0 | 0.00 | 0.00 | 0.00 | 83 | 1018.9 |
| 20260510004209 | 3 | 152 | 0.0 | 1.6 | 0.00 | 0.00 | 0.00 | 83 | 1018.9 |
| 20260510003709 | 3 | 152 | 0.0 | 1.6 | 0.00 | 0.00 | 0.00 | 84 | 1019.0 |
| 20260510003210 | 3 | 152 | 0.0 | 1.6 | 0.00 | 0.00 | 0.00 | 84 | 1019.0 |
| 20260510002709 | 3 | 152 | 0.0 | 3.2 | 0.00 | 0.00 | 0.00 | 84 | 1019.1 |
| 20260510002436 | 4 | 152 | 0.0 | 3.2 | 0.00 | 0.00 | 0.00 | 85 | 1019.1 |
| 20260510001708 | 3 | 152 | 1.6 | 3.2 | 0.00 | 0.00 | 0.00 | 85 | 1019.1 |
| 20260510001208 | 3 | 152 | 1.6 | 4.8 | 0.00 | 0.00 | 0.00 | 86 | 1019.2 |
| 20260510000936 | 3 | 152 | 1.6 | 4.8 | 0.00 | 0.00 | 0.00 | 87 | 1019.2 |
| 20260510000219 | 3 | 148 | 3.2 | 4.8 | 0.00 | 0.00 | 0.00 | 88 | 1019.3 |
| 20260509235708 | 3 | 145 | 3.2 | 4.8 | 0.00 | 0.00 | 0.00 | 90 | 1019.4 |
| 20260509235209 | 3 | 141 | 3.2 | 4.8 | 0.00 | 0.00 | 0.00 | 90 | 1019.4 |
| 20260509234708 | 3 | 140 | 3.2 | 4.8 | 0.00 | 0.00 | 0.00 | 90 | 1019.5 |
| 20260509234208 | 2 | 140 | 1.6 | 3.2 | 0.00 | 0.00 | 0.00 | 90 | 1019.5 |
| 20260509233708 | 2 | 140 | 1.6 | 3.2 | 0.00 | 0.00 | 0.00 | 89 | 1019.6 |
| 20260509233208 | 2 | 140 | 0.0 | 1.6 | 0.00 | 0.00 | 0.00 | 89 | 1019.6 |
| 20260509232708 | 2 | 140 | 0.0 | 1.6 | 0.00 | 0.00 | 0.00 | 88 | 1019.8 |
| 20260509232207 | 2 | 140 | 0.0 | 0.0 | 0.00 | 0.00 | 0.00 | 87 | 1019.9 |
| 20260509231924 | 3 | 140 | 0.0 | 0.0 | 0.00 | 0.00 | 0.00 | 87 | 1020.0 |
| 20260509231204 | 3 | 140 | 0.0 | 0.0 | 0.00 | 0.00 | 0.00 | 87 | 1020.1 |
| 20260509230705 | 3 | 140 | 0.0 | 0.0 | 0.00 | 0.00 | 0.00 | 86 | 1020.2 |
| 20260509230206 | 3 | 140 | 0.0 | 0.0 | 0.00 | 0.00 | 0.00 | 86 | 1020.2 |
| 20260509225707 | 3 | 140 | 0.0 | 0.0 | 0.00 | 0.00 | 0.00 | 86 | 1020.2 |
| 20260509225432 | 3 | 140 | 0.0 | 0.0 | 0.00 | 0.00 | 0.00 | 86 | 1020.4 |